Flag for Switzerland Weather past 2 weeks in Arth, Schwyz, Switzerland

Now
81 °F

Warm.


Feels Like: 84 °F
Forecast: 59 / 80 °F
Wind: 7 mph from Northwest

Location: Altdorf

Current Time: Jul 6, 2015 at 6:18:20 PM

Latest Report: Jul 6, 2015 at 4:00 PM


Visibility: N/A

Pressure: 30.04 "Hg

Humidity: 63%

Dew point: 67 °F

Location of ArthLocation

Historic Weather in Arth — Graph

°F

Arth temperature yesterday

Maximum temperature yesterday: 91 °F (at 5:00 PM)
Minimum temperature yesterday: 68 °F (at 6:00 AM)
Average temperature yesterday: 78 °F

Past Weeks' High & Low Weather Summary

 TemperatureHumidityPressure
High91 °F (Jul 5, 5:00 PM)95% (Jun 22, 6:00 AM)30.24 "Hg (Jun 22, 6:00 AM)
Low50 °F (Jun 24, 8:00 AM)38% (Jul 3, 8:00 PM)29.73 "Hg (Jun 22, 11:00 PM)
Average70 °F68%30.09 "Hg
* Reported Jun 21 4:00 PM — Jul 6 4:00 PM, Arth, Weather by CustomWeather, © 2015

Note: Actual official high and low records may vary slightly from our data, if they occured in-between our weather recording intervals... More about our weather records

Advertising

Arth weather history for previous 24 hours

 ConditionsComfort  
Time TempWeatherWind HumidityBarometerVisibility
4:00 PM
Mon, Jul 6
81 °FWarm.7 mph63%30.04 "HgN/A
3:00 PM81 °FWarm.7 mph61%30.06 "HgN/A
2:00 PM80 °FScattered clouds.8 mph65%30.08 "Hg12 mi
1:00 PM79 °FWarm.7 mph69%30.09 "HgN/A
12:00 PM79 °FWarm.7 mph70%30.10 "HgN/A
11:00 AM77 °FScattered clouds.5 mph76%30.11 "Hg12 mi
10:00 AM75 °FMild.5 mph79%30.13 "HgN/A
9:00 AM73 °FMild.2 mph77%30.14 "HgN/A
8:00 AM71 °FPartly sunny.3 mph80%30.16 "Hg11 mi
7:00 AM70 °FMild.1 mph82%30.16 "HgN/A
6:00 AM69 °FMild.5 mph80%30.15 "HgN/A
4:00 AM72 °FMild.3 mph63%30.10 "HgN/A
3:00 AM69 °FMild.2 mph77%30.11 "HgN/A
2:00 AM71 °FPassing clouds.3 mph66%30.07 "Hg16 mi
1:00 AM69 °FMild.3 mph74%30.06 "HgN/A
12:00 AM68 °FMild.2 mph79%30.06 "HgN/A
11:00 PM
Sun, Jul 5
74 °FPassing clouds.8 mph62%30.05 "Hg12 mi
10:00 PM73 °FMild.3 mph66%30.03 "HgN/A
9:00 PM75 °FMild.16 mph62%30.01 "HgN/A
8:00 PM77 °FHeavy rain. Overcast.16 mph67%29.99 "Hg5 mi
7:00 PM88 °FHot.5 mph44%29.87 "HgN/A
6:00 PM91 °FHot.7 mph39%29.88 "HgN/A
Weather by CustomWeather, © 2015

See weather overviewHow to use our weather pages